Regional Weather Roundup
Issued by NWS Goodland, KS

Home | Current Version | Previous Version | Graphics & Text | Print | Product List | Glossary On
Versions: 1 2 3 4 5 6 7 8 9 10 11 12 13 14 15 16 17 18 19 20 21 22 23 24 25 26 27 28 29 30 31 32 33 34 35 36 37 38 39 40 41 42 43 44 45 46 47 48 49 50
000
ASUS43 KGLD 040508
RWRGLD

GOODLAND FORECAST AREA HOURLY WEATHER ROUNDUP
NATIONAL WEATHER SERVICE GOODLAND KS
1100 PM MDT SUN MAY 03 2015

...OFFICIAL OBSERVATIONS...

CITY           SKY/WX    TMP DP  RH WIND       PRES   REMARKS
GOODLAND KS    CLOUDY    63  48  58 NW17      30.01R
HILL CITY KS   CLOUDY    62  55  77 W3        29.95R
IMPERIAL NEB   CLOUDY    59  39  47 NE15      30.00R
MCCOOK NEB     CLOUDY    63  42  46 NE16      29.95R
AKRON CO       CLOUDY    57  44  62 E8        30.04R
BURLINGTON CO  LGT RAIN  56  52  86 NW9       30.05S
LIMON CO       CLOUDY    50  43  77 S6        30.08R
$$

...UNOFFICIAL OBSERVATIONS...

CITY           SKY/WX    TMP DP  RH WIND       PRES   REMARKS
COLBY KS       CLOUDY    70  52  52 NE17      30.00R
GOVE KS          N/A     68  32  26 MISG        N/A
LENORA KS        N/A     68  32  26 MISG        N/A
NORTON KS      CLEAR     68  45  42 NE12      29.93R
SHARON SPRINGS   N/A     64  53  68 MISG        N/A
KIT CARSON CO    N/A     57  51  79 MISG        N/A
YUMA CO          N/A     59  42  52 NE7         N/A
$$


USA.gov is the U.S. government's official web portal to all federal, state and local government web resources and services.